Tracking 23726 objects as of 16-Oct-2021
HD Live streaming from Space Station
objects crossing your sky now

USA 40 R/B DEB

Track USA 40 R/B DEB now!
10-day predictions


NORAD ID: 23374
Int'l Code: 1989-061AW
Perigee: 533.5 km
Apogee: 6,862.4 km
Inclination: 57.1 °
Period: 167.6 minutes
Semi major axis: 10068 km
RCS: Unknown
Launch date: August 8, 1989
Source: United States (US)
Launch site: AIR FORCE EASTERN TEST RANGE (AFETR)

Note: This is SATELLITE DEBRIS
aabbcc
Your satellite tracking list
Your tracking list is empty




NASA's NSSDC Master Catalog

Two Line Element Set (TLE):
1 23374U 89061AW  21269.31028633  .00000680  00000-0  62975-3 0  9995
2 23374  57.0860 143.9041 3142772 216.0385 118.1427  8.59260471 64253
Source of the keplerian elements: AFSPC